Tracking 25372 objects as of 23-Jan-2022
HD Live streaming from Space Station
objects crossing your sky now

ECHOSTAR 6

Track ECHOSTAR 6 now!
ECHOSTAR 6 is classified as:


NORAD ID: 26402
Int'l Code: 2000-038A
Perigee: 36,191.9 km
Apogee: 36,237.7 km
Inclination: 7.5 °
Period: 1,457.7 minutes
Semi major axis: 42585 km
RCS: 25.1188 m2 (large)
Launch date: July 14, 2000
Source: United States (US)
Launch site: AIR FORCE EASTERN TEST RANGE (AFETR)

CONUS, Hawaii, Alaska and Puerto Rico; 32 Ku-band transponders
aabbcc
Your satellite tracking list
Your tracking list is empty




NASA's NSSDC Master Catalog

Two Line Element Set (TLE):
1 26402U 00038A   22023.48709432 -.00000035  00000-0  00000+0 0  9999
2 26402   7.4607  58.6979 0005379 299.2296 216.3411  0.98788387 78615
Source of the keplerian elements: AFSPC